When you browse on this site, cookies collect data to enhance your experience and personalize the content and advertising you see.
Visit our Privacy Policy to learn more. By continuing to use the site, you agree to this use of cookies and data.
  • In Hungary
  • List of Countries
  • For 7 days
  • Water Temperature
  • Satellite Maps
  • Weather Map
  • News
  • Weather Widgets
  • user-avatar
    Login

    Hourly Weather Kavadarci

    Today, 10 December, Monday

    Time Temperature Precipitation Wind Pressure Humidity
    00:00 +6°C° 0 mm 1 mps 734 mmHg 79%
    01:00 +7°C° 0 mm 1 mps 733 mmHg 79%
    02:00 +7°C° 0.1 mm 1 mps 733 mmHg 80%
    03:00 +7°C° 0.1 mm 1 mps 732 mmHg 81%
    04:00 +7°C° 0.1 mm 1 mps 732 mmHg 82%
    05:00 +7°C° 0.3 mm 1 mps 732 mmHg 83%
    06:00 +7°C° 0.3 mm 1 mps 732 mmHg 84%
    07:00 +5°C° 0 mm 3 mps 732 mmHg 81%
    08:00 +5°C° 0.7 mm 3 mps 733 mmHg 79%
    09:00 +5°C° 0.7 mm 3 mps 733 mmHg 78%
    10:00 +5°C° 0.7 mm 3 mps 734 mmHg 76%
    11:00 +6°C° 0.1 mm 4 mps 734 mmHg 72%
    12:00 +7°C° 0.1 mm 4 mps 734 mmHg 68%
    13:00 +8°C° 0.1 mm 5 mps 734 mmHg 65%
    14:00 +7°C° 0 mm 4 mps 734 mmHg 68%
    15:00 +6°C° 0 mm 4 mps 735 mmHg 71%
    16:00 +7°C° 0 mm 3 mps 735 mmHg 75%
    17:00 +5°C° 0 mm 3 mps 735 mmHg 77%
    18:00 +4°C° 0 mm 3 mps 736 mmHg 79%
    19:00 +3°C° 0 mm 3 mps 736 mmHg 82%
    20:00 +3°C° 0 mm 3 mps 737 mmHg 82%
    21:00 +2°C° 0 mm 3 mps 737 mmHg 82%
    22:00 +2°C° 0 mm 3 mps 738 mmHg 82%
    23:00 +2°C° 0 mm 2 mps 738 mmHg 83%

    Tomorrow, 11 December, Tuesday

    Time Temperature Precipitation Wind Pressure Humidity
    00:00 +2°C° 0 mm 2 mps 738 mmHg 83%
    01:00 +2°C° 0 mm 2 mps 738 mmHg 83%
    02:00 +1°C° 0 mm 2 mps 738 mmHg 83%
    03:00 +1°C° 0 mm 2 mps 738 mmHg 83%
    04:00 +1°C° 0 mm 2 mps 738 mmHg 83%
    05:00 +1°C° 0 mm 2 mps 739 mmHg 83%
    06:00 +1°C° 0 mm 2 mps 739 mmHg 83%
    07:00 +1°C° 0 mm 2 mps 739 mmHg 83%
    08:00 +2°C° 0 mm 2 mps 739 mmHg 75%
    09:00 +2°C° 0 mm 3 mps 740 mmHg 68%
    10:00 +4°C° 0 mm 3 mps 740 mmHg 61%
    11:00 +4°C° 0 mm 3 mps 740 mmHg 58%
    12:00 +4°C° 0 mm 3 mps 739 mmHg 55%
    13:00 +5°C° 0 mm 3 mps 739 mmHg 52%
    14:00 +4°C° 0 mm 3 mps 739 mmHg 56%
    15:00 +4°C° 0 mm 2 mps 739 mmHg 60%
    16:00 +3°C° 0 mm 2 mps 740 mmHg 63%
    17:00 +2°C° 0 mm 2 mps 740 mmHg 66%
    18:00 +1°C° 0 mm 2 mps 740 mmHg 68%
    19:00 +2°C° 0 mm 1 mps 741 mmHg 71%
    20:00 +2°C° 0 mm 1 mps 741 mmHg 71%
    21:00 +1°C° 0 mm 1 mps 741 mmHg 71%
    22:00 +1°C° 0 mm 1 mps 741 mmHg 71%
    23:00 +1°C° 0 mm 1 mps 741 mmHg 71%

    Day after tomorrow, 12 December, Wednesday

    Time Temperature Precipitation Wind Pressure Humidity
    00:00 +1°C° 0 mm 1 mps 742 mmHg 72%
    01:00 +1°C° 0 mm 1 mps 742 mmHg 72%
    02:00 +1°C° 0 mm 1 mps 742 mmHg 72%
    03:00 +1°C° 0 mm 1 mps 742 mmHg 72%
    04:00 0°C° 0 mm 1 mps 742 mmHg 72%
    05:00 0°C° 0 mm 1 mps 742 mmHg 72%
    06:00 0°C° 0 mm 1 mps 742 mmHg 72%
    07:00 0°C° 0 mm 1 mps 743 mmHg 72%
    08:00 +2°C° 0 mm 1 mps 743 mmHg 65%
    09:00 +4°C° 0 mm 1 mps 743 mmHg 59%
    10:00 +5°C° 0 mm 1 mps 743 mmHg 52%
    11:00 +6°C° 0 mm 1 mps 743 mmHg 49%
    12:00 +7°C° 0 mm 1 mps 742 mmHg 46%
    13:00 +7°C° 0 mm 1 mps 742 mmHg 43%
    14:00 +6°C° 0 mm 1 mps 742 mmHg 48%
    15:00 +5°C° 0 mm 1 mps 742 mmHg 52%
    16:00 +4°C° 0 mm 1 mps 742 mmHg 56%
    17:00 +3°C° 0 mm 1 mps 743 mmHg 57%
    18:00 +2°C° 0 mm 1 mps 743 mmHg 59%
    19:00 +2°C° 0 mm 1 mps 743 mmHg 60%
    20:00 +2°C° 0 mm 1 mps 743 mmHg 60%
    21:00 +2°C° 0 mm 1 mps 743 mmHg 59%
    22:00 +2°C° 0 mm 1 mps 744 mmHg 58%
    23:00 +2°C° 0 mm 1 mps 743 mmHg 57%

    13 December, Thursday

    Time Temperature Precipitation Wind Pressure Humidity
    00:00 +2°C° 0 mm 1 mps 743 mmHg 57%
    01:00 +2°C° 0 mm 1 mps 743 mmHg 56%
    02:00 +2°C° 0 mm 1 mps 743 mmHg 56%
    03:00 +2°C° 0 mm 1 mps 742 mmHg 55%
    04:00 +2°C° 0 mm 1 mps 742 mmHg 55%
    05:00 +2°C° 0 mm 1 mps 742 mmHg 55%
    06:00 +3°C° 0 mm 1 mps 742 mmHg 56%
    07:00 +3°C° 0 mm 1 mps 742 mmHg 56%
    08:00 +4°C° 0.1 mm 1 mps 741 mmHg 56%
    09:00 +4°C° 0.1 mm 1 mps 741 mmHg 56%
    10:00 +4°C° 0.1 mm 2 mps 741 mmHg 56%
    11:00 +4°C° 0.4 mm 2 mps 740 mmHg 62%
    12:00 +4°C° 0.4 mm 2 mps 739 mmHg 68%
    13:00 +4°C° 0.4 mm 2 mps 739 mmHg 74%
    14:00 +5°C° 0.2 mm 1 mps 739 mmHg 77%
    15:00 +4°C° 0.2 mm 1 mps 738 mmHg 81%
    16:00 +4°C° 0.2 mm 1 mps 738 mmHg 85%
    17:00 +4°C° 0.1 mm 1 mps 738 mmHg 85%
    18:00 +4°C° 0.1 mm 1 mps 739 mmHg 85%
    19:00 +3°C° 0.1 mm 1 mps 739 mmHg 86%
    20:00 +3°C° 0 mm 1 mps 739 mmHg 86%
    21:00 +3°C° 0 mm 1 mps 739 mmHg 86%
    22:00 +3°C° 0 mm 1 mps 739 mmHg 85%
    23:00 +3°C° 0 mm 1 mps 740 mmHg 85%

    14 December, Friday

    Time Temperature Precipitation Wind Pressure Humidity
    00:00 +3°C° 0 mm 1 mps 740 mmHg 85%
    01:00 +3°C° 0 mm 1 mps 740 mmHg 84%
    02:00 +3°C° 0 mm 1 mps 740 mmHg 84%
    03:00 +3°C° 0 mm 1 mps 741 mmHg 84%
    04:00 +3°C° 0 mm 1 mps 741 mmHg 84%
    05:00 +3°C° 0 mm 1 mps 741 mmHg 84%
    06:00 +3°C° 0 mm 1 mps 742 mmHg 84%
    07:00 +3°C° 0 mm 1 mps 742 mmHg 84%
    08:00 +4°C° 0 mm 1 mps 743 mmHg 80%
    09:00 +6°C° 0 mm 1 mps 743 mmHg 75%
    10:00 +8°C° 0 mm 1 mps 744 mmHg 71%
    11:00 +8°C° 0 mm 1 mps 744 mmHg 70%
    12:00 +9°C° 0 mm 1 mps 744 mmHg 68%
    13:00 +10°C° 0 mm 1 mps 743 mmHg 67%
    14:00 +9°C° 0 mm 1 mps 744 mmHg 71%
    15:00 +8°C° 0 mm 1 mps 744 mmHg 75%
    16:00 +7°C° 0 mm 1 mps 744 mmHg 79%
    17:00 +6°C° 0 mm 1 mps 745 mmHg 80%
    18:00 +6°C° 0 mm 1 mps 745 mmHg 82%
    19:00 +5°C° 0 mm 1 mps 746 mmHg 83%
    20:00 +5°C° 0 mm 1 mps 746 mmHg 84%
    21:00 +5°C° 0 mm 1 mps 746 mmHg 85%
    22:00 +5°C° 0 mm 1 mps 747 mmHg 85%
    23:00 +5°C° 0 mm 1 mps 747 mmHg 86%

    15 December, Saturday

    Time Temperature Precipitation Wind Pressure Humidity
    00:00 +5°C° 0 mm 1 mps 747 mmHg 86%
    01:00 +4°C° 0 mm 1 mps 747 mmHg 87%
    02:00 +4°C° 0 mm 1 mps 747 mmHg 87%
    03:00 +4°C° 0 mm 1 mps 747 mmHg 87%
    04:00 +4°C° 0 mm 1 mps 747 mmHg 87%
    05:00 +4°C° 0 mm 1 mps 748 mmHg 87%
    06:00 +4°C° 0 mm 1 mps 748 mmHg 87%
    07:00 +4°C° 0 mm 1 mps 748 mmHg 87%
    08:00 +6°C° 0 mm 1 mps 748 mmHg 83%
    09:00 +7°C° 0 mm 1 mps 749 mmHg 79%
    10:00 +9°C° 0 mm 1 mps 749 mmHg 74%
    11:00 +9°C° 0 mm 1 mps 749 mmHg 73%
    12:00 +10°C° 0 mm 1 mps 748 mmHg 72%
    13:00 +11°C° 0 mm 1 mps 748 mmHg 71%
    14:00 +10°C° 0 mm 1 mps 748 mmHg 74%
    15:00 +9°C° 0 mm 1 mps 748 mmHg 78%
    16:00 +8°C° 0 mm 1 mps 748 mmHg 82%
    17:00 +8°C° 0 mm 1 mps 748 mmHg 83%
    18:00 +7°C° 0 mm 1 mps 749 mmHg 85%
    19:00 +7°C° 0 mm 1 mps 749 mmHg 86%
    20:00 +7°C° 0 mm 1 mps 749 mmHg 87%
    21:00 +6°C° 0 mm 1 mps 749 mmHg 87%
    22:00 +6°C° 0 mm 1 mps 749 mmHg 88%
    23:00 +6°C° 0 mm 1 mps 749 mmHg 88%
    Show more